When you browse on this site, cookies collect data to enhance your experience and personalize the content and advertising you see.
Visit our Privacy Policy to learn more. By continuing to use the site, you agree to this use of cookies and data.
  • En España
  • Lista de países
  • Para 7 días
  • Temperatura del agua
  • Mapa Satelital
  • El tiempo en el mapa
  • Informadores
  • user-avatar
    Iniciar sesión

    Tiempo cada hora Brisbane

    Hoy, 16 Febrero, Sábado

    Tiempo Temperatura Precipitaciones Viento Presión Humedad
    00:00 +22°C° 0 mm 5 mps 762 mmHg 74%
    01:00 +22°C° 0 mm 5 mps 761 mmHg 75%
    02:00 +22°C° 0 mm 4 mps 761 mmHg 76%
    03:00 +22°C° 0 mm 4 mps 761 mmHg 77%
    04:00 +21°C° 0 mm 4 mps 760 mmHg 79%
    05:00 +22°C° 0 mm 4 mps 760 mmHg 76%
    06:00 +23°C° 0 mm 4 mps 761 mmHg 73%
    07:00 +23°C° 0 mm 4 mps 761 mmHg 70%
    08:00 +26°C° 0 mm 5 mps 761 mmHg 63%
    09:00 +28°C° 0 mm 5 mps 761 mmHg 56%
    10:00 +29°C° 0 mm 5 mps 761 mmHg 50%
    11:00 +30°C° 0 mm 5 mps 761 mmHg 49%
    12:00 +30°C° 0 mm 5 mps 760 mmHg 48%
    13:00 +30°C° 0 mm 5 mps 760 mmHg 46%
    14:00 +30°C° 0 mm 5 mps 759 mmHg 48%
    15:00 +30°C° 0 mm 5 mps 759 mmHg 49%
    16:00 +29°C° 0 mm 5 mps 759 mmHg 51%
    17:00 +28°C° 0 mm 5 mps 759 mmHg 54%
    18:00 +27°C° 0 mm 5 mps 759 mmHg 57%
    19:00 +27°C° 0 mm 5 mps 760 mmHg 61%
    20:00 +26°C° 0 mm 4 mps 760 mmHg 64%
    21:00 +25°C° 0 mm 4 mps 760 mmHg 68%
    22:00 +23°C° 0 mm 4 mps 760 mmHg 72%
    23:00 +23°C° 0 mm 4 mps 760 mmHg 74%

    Mañana, 17 Febrero, Domingo

    Tiempo Temperatura Precipitaciones Viento Presión Humedad
    00:00 +22°C° 0 mm 3 mps 760 mmHg 77%
    01:00 +22°C° 0 mm 3 mps 759 mmHg 79%
    02:00 +21°C° 0 mm 3 mps 759 mmHg 81%
    03:00 +21°C° 0 mm 3 mps 759 mmHg 82%
    04:00 +21°C° 0 mm 3 mps 758 mmHg 83%
    05:00 +21°C° 0 mm 3 mps 758 mmHg 80%
    06:00 +22°C° 0 mm 3 mps 758 mmHg 76%
    07:00 +24°C° 0 mm 3 mps 758 mmHg 73%
    08:00 +26°C° 0 mm 4 mps 758 mmHg 65%
    09:00 +28°C° 0 mm 4 mps 759 mmHg 56%
    10:00 +30°C° 0 mm 4 mps 759 mmHg 48%
    11:00 +32°C° 0 mm 4 mps 758 mmHg 47%
    12:00 +32°C° 0 mm 5 mps 758 mmHg 45%
    13:00 +33°C° 0 mm 5 mps 757 mmHg 44%
    14:00 +33°C° 0 mm 5 mps 757 mmHg 45%
    15:00 +32°C° 0 mm 5 mps 756 mmHg 46%
    16:00 +32°C° 0 mm 5 mps 756 mmHg 47%
    17:00 +29°C° 0 mm 5 mps 756 mmHg 53%
    18:00 +28°C° 0 mm 4 mps 756 mmHg 59%
    19:00 +26°C° 0 mm 4 mps 757 mmHg 65%
    20:00 +26°C° 0 mm 4 mps 757 mmHg 68%
    21:00 +25°C° 0 mm 3 mps 758 mmHg 72%
    22:00 +25°C° 0 mm 3 mps 758 mmHg 75%
    23:00 +24°C° 0 mm 3 mps 758 mmHg 78%

    Pasado mañana, 18 Febrero, Lunes

    Tiempo Temperatura Precipitaciones Viento Presión Humedad
    00:00 +24°C° 0 mm 3 mps 758 mmHg 80%
    01:00 +23°C° 0 mm 2 mps 757 mmHg 82%
    02:00 +23°C° 0 mm 2 mps 757 mmHg 84%
    03:00 +23°C° 0 mm 2 mps 757 mmHg 85%
    04:00 +21°C° 0 mm 2 mps 757 mmHg 86%
    05:00 +22°C° 0 mm 3 mps 757 mmHg 83%
    06:00 +24°C° 0 mm 3 mps 757 mmHg 80%
    07:00 +25°C° 0 mm 3 mps 757 mmHg 76%
    08:00 +27°C° 0 mm 3 mps 757 mmHg 68%
    09:00 +29°C° 0 mm 3 mps 757 mmHg 60%
    10:00 +31°C° 0 mm 3 mps 757 mmHg 52%
    11:00 +32°C° 0 mm 4 mps 757 mmHg 49%
    12:00 +33°C° 0 mm 4 mps 756 mmHg 46%
    13:00 +34°C° 0 mm 5 mps 756 mmHg 43%
    14:00 +34°C° 0 mm 5 mps 755 mmHg 46%
    15:00 +33°C° 0 mm 5 mps 755 mmHg 48%
    16:00 +32°C° 0 mm 5 mps 755 mmHg 51%
    17:00 +30°C° 0 mm 5 mps 755 mmHg 57%
    18:00 +28°C° 0 mm 4 mps 755 mmHg 64%
    19:00 +26°C° 0 mm 4 mps 756 mmHg 70%
    20:00 +26°C° 0 mm 3 mps 756 mmHg 73%
    21:00 +25°C° 0 mm 3 mps 757 mmHg 77%
    22:00 +24°C° 0 mm 2 mps 757 mmHg 81%
    23:00 +24°C° 0 mm 2 mps 756 mmHg 83%

    19 Febrero, Martes

    Tiempo Temperatura Precipitaciones Viento Presión Humedad
    00:00 +23°C° 0 mm 2 mps 756 mmHg 86%
    01:00 +23°C° 0 mm 2 mps 756 mmHg 88%
    02:00 +21°C° 0 mm 2 mps 755 mmHg 89%
    03:00 +21°C° 0 mm 2 mps 755 mmHg 90%
    04:00 +21°C° 0 mm 2 mps 754 mmHg 91%
    05:00 +21°C° 0 mm 2 mps 755 mmHg 88%
    06:00 +23°C° 0 mm 2 mps 755 mmHg 84%
    07:00 +23°C° 0 mm 2 mps 755 mmHg 81%
    08:00 +26°C° 0 mm 2 mps 755 mmHg 69%
    09:00 +29°C° 0 mm 2 mps 755 mmHg 58%
    10:00 +31°C° 0 mm 2 mps 755 mmHg 46%
    11:00 +34°C° 0 mm 3 mps 754 mmHg 42%
    12:00 +35°C° 0 mm 3 mps 754 mmHg 38%
    13:00 +36°C° 0 mm 3 mps 753 mmHg 34%
    14:00 +36°C° 0 mm 3 mps 752 mmHg 37%
    15:00 +35°C° 0 mm 4 mps 752 mmHg 39%
    16:00 +35°C° 0 mm 5 mps 751 mmHg 42%
    17:00 +33°C° 0 mm 4 mps 752 mmHg 54%
    18:00 +29°C° 0 mm 4 mps 753 mmHg 66%
    19:00 +27°C° 0 mm 4 mps 753 mmHg 78%
    20:00 +27°C° 0 mm 3 mps 754 mmHg 82%
    21:00 +26°C° 0 mm 3 mps 754 mmHg 86%
    22:00 +26°C° 0 mm 3 mps 755 mmHg 90%
    23:00 +25°C° 0 mm 3 mps 755 mmHg 91%

    20 Febrero, Miércoles

    Tiempo Temperatura Precipitaciones Viento Presión Humedad
    00:00 +25°C° 0 mm 3 mps 754 mmHg 91%
    01:00 +24°C° 0 mm 3 mps 754 mmHg 92%
    02:00 +24°C° 0 mm 3 mps 753 mmHg 92%
    03:00 +24°C° 0 mm 3 mps 753 mmHg 92%
    04:00 +24°C° 0 mm 3 mps 752 mmHg 92%
    05:00 +24°C° 0 mm 3 mps 753 mmHg 89%
    06:00 +25°C° 0 mm 3 mps 753 mmHg 86%
    07:00 +26°C° 0 mm 4 mps 754 mmHg 83%
    08:00 +28°C° 0 mm 4 mps 754 mmHg 74%
    09:00 +30°C° 0 mm 4 mps 754 mmHg 64%
    10:00 +33°C° 0 mm 5 mps 754 mmHg 55%
    11:00 +34°C° 0 mm 5 mps 753 mmHg 52%
    12:00 +35°C° 0 mm 5 mps 753 mmHg 49%
    13:00 +36°C° 0 mm 5 mps 752 mmHg 46%
    14:00 +36°C° 0 mm 5 mps 751 mmHg 47%
    15:00 +36°C° 0 mm 5 mps 751 mmHg 47%
    16:00 +36°C° 0 mm 5 mps 750 mmHg 48%
    17:00 +34°C° 0 mm 5 mps 751 mmHg 55%
    18:00 +32°C° 0 mm 5 mps 751 mmHg 63%
    19:00 +30°C° 0 mm 4 mps 752 mmHg 70%
    20:00 +29°C° 0 mm 4 mps 752 mmHg 75%
    21:00 +28°C° 0 mm 3 mps 752 mmHg 80%
    22:00 +27°C° 0 mm 3 mps 753 mmHg 85%
    23:00 +26°C° 0 mm 3 mps 752 mmHg 87%

    21 Febrero, Jueves

    Tiempo Temperatura Precipitaciones Viento Presión Humedad
    00:00 +26°C° 0 mm 3 mps 751 mmHg 89%
    01:00 +25°C° 0 mm 3 mps 751 mmHg 91%
    02:00 +25°C° 0 mm 3 mps 751 mmHg 91%
    03:00 +25°C° 0 mm 3 mps 751 mmHg 90%
    04:00 +25°C° 0 mm 3 mps 751 mmHg 90%
    05:00 +26°C° 0 mm 3 mps 751 mmHg 86%
    06:00 +26°C° 0 mm 3 mps 751 mmHg 83%
    07:00 +27°C° 0 mm 3 mps 752 mmHg 79%
    08:00 +29°C° 0 mm 3 mps 752 mmHg 69%
    09:00 +33°C° 0 mm 3 mps 752 mmHg 59%
    10:00 +35°C° 0 mm 3 mps 752 mmHg 49%
    11:00 +36°C° 0 mm 4 mps 752 mmHg 45%
    12:00 +38°C° 0 mm 4 mps 751 mmHg 41%
    13:00 +40°C° 0 mm 4 mps 750 mmHg 36%
    14:00 +39°C° 0 mm 5 mps 750 mmHg 39%
    15:00 +37°C° 0 mm 5 mps 750 mmHg 43%
    16:00 +36°C° 0 mm 6 mps 750 mmHg 46%
    17:00 +34°C° 0.3 mm 5 mps 750 mmHg 55%
    18:00 +32°C° 0.3 mm 5 mps 751 mmHg 65%
    19:00 +28°C° 0.3 mm 5 mps 751 mmHg 74%
    20:00 +28°C° 0.1 mm 5 mps 752 mmHg 75%
    21:00 +28°C° 0.1 mm 4 mps 753 mmHg 76%
    22:00 +27°C° 0.1 mm 4 mps 753 mmHg 78%
    23:00 +27°C° 0 mm 4 mps 753 mmHg 78%
    Mostrar más